カタログに戻る

STARLINK-37438

運用中通信VLEO
NORAD 69526·PAYLOAD·🇺🇸 United States

打ち上げ Jun 12, 2026 から Cape Canaveral Space Force Station

Loading…

次のパス (今後24時間)

TLE

最新Source: CelesTrak SupGP

元期: Sep 14, 2026, 22:59 UTC

1 69526C 26133U   26257.95812500  .00037861  00000+0  11186-2 0  2575
2 69526  53.1567 255.4243 0001252  94.3345 350.0110 15.34372329    10

AllMySatでSTARLINK-37438をリアルタイム追跡

Download on the App Store